TimeEST,TemperatureF,Dew PointF,Humidity,Sea Level PressureIn,VisibilityMPH,Wind Direction,Wind SpeedMPH,Gust SpeedMPH,PrecipitationIn,Events,Conditions,WindDirDegrees,DateUTC
12:15 AM,35.6,33.8,93,30.41,10.0,Calm,Calm,-,N/A,,Clear,0,2012-12-31 05:15:00
12:35 AM,35.6,33.8,93,30.39,10.0,Calm,Calm,-,N/A,,Clear,0,2012-12-31 05:35:00
12:55 AM,33.8,32.0,93,30.40,10.0,Calm,Calm,-,N/A,,Clear,0,2012-12-31 05:55:00
1:15 AM,33.8,33.8,100,30.41,10.0,Calm,Calm,-,N/A,,Clear,0,2012-12-31 06:15:00
1:35 AM,33.8,32.0,93,30.39,10.0,Calm,Calm,-,N/A,,Clear,0,2012-12-31 06:35:00
1:55 AM,33.8,32.0,93,30.39,7.0,Calm,Calm,-,N/A,,Clear,0,2012-12-31 06:55:00
2:15 AM,33.8,32.0,93,30.39,10.0,Calm,Calm,-,N/A,,Clear,0,2012-12-31 07:15:00
2:35 AM,33.8,32.0,93,30.39,7.0,Calm,Calm,-,N/A,,Clear,0,2012-12-31 07:35:00
2:55 AM,33.8,32.0,93,30.40,7.0,Calm,Calm,-,N/A,,Clear,0,2012-12-31 07:55:00
3:15 AM,33.8,32.0,93,30.40,10.0,Calm,Calm,-,N/A,,Clear,0,2012-12-31 08:15:00
3:35 AM,33.8,32.0,93,30.40,10.0,Calm,Calm,-,N/A,,Clear,0,2012-12-31 08:35:00
3:55 AM,33.8,32.0,93,30.39,7.0,Calm,Calm,-,N/A,,Clear,0,2012-12-31 08:55:00
4:15 AM,33.8,32.0,93,30.39,7.0,Calm,Calm,-,N/A,,Clear,0,2012-12-31 09:15:00
4:35 AM,33.8,32.0,93,30.38,7.0,Calm,Calm,-,N/A,,Clear,0,2012-12-31 09:35:00
4:55 AM,33.8,32.0,93,30.37,7.0,Calm,Calm,-,N/A,,Clear,0,2012-12-31 09:55:00
5:15 AM,33.8,33.8,100,30.37,7.0,Calm,Calm,-,N/A,,Clear,0,2012-12-31 10:15:00
5:35 AM,33.8,32.0,93,30.37,7.0,Calm,Calm,-,N/A,,Clear,0,2012-12-31 10:35:00
5:55 AM,33.8,32.0,93,30.38,10.0,Calm,Calm,-,N/A,,Clear,0,2012-12-31 10:55:00
6:15 AM,33.8,32.0,93,30.39,10.0,Calm,Calm,-,N/A,,Clear,0,2012-12-31 11:15:00
6:35 AM,33.8,32.0,93,30.38,10.0,NNE,3.5,-,N/A,,Clear,30,2012-12-31 11:35:00
6:55 AM,35.6,33.8,93,30.39,10.0,NE,3.5,-,N/A,,Clear,40,2012-12-31 11:55:00
7:15 AM,35.6,33.8,93,30.39,10.0,Calm,Calm,-,N/A,,Clear,0,2012-12-31 12:15:00
7:55 AM,35.6,33.8,93,30.39,7.0,Calm,Calm,-,N/A,,Clear,0,2012-12-31 12:55:00
8:15 AM,37.4,33.8,87,30.39,10.0,Calm,Calm,-,N/A,,Clear,0,2012-12-31 13:15:00
8:35 AM,37.4,33.8,87,30.37,10.0,East,3.5,-,N/A,,Clear,100,2012-12-31 13:35:00
8:55 AM,41.0,35.6,81,30.38,10.0,Calm,Calm,-,N/A,,Clear,0,2012-12-31 13:55:00
9:15 AM,42.8,35.6,76,30.37,10.0,East,3.5,-,N/A,,Clear,100,2012-12-31 14:15:00
9:35 AM,44.6,37.4,76,30.38,10.0,East,5.8,-,N/A,,Clear,100,2012-12-31 14:35:00
9:55 AM,46.4,35.6,66,30.39,10.0,ESE,4.6,-,N/A,,Clear,110,2012-12-31 14:55:00
10:15 AM,50.0,35.6,58,30.39,10.0,ESE,4.6,-,N/A,,Clear,120,2012-12-31 15:15:00
10:35 AM,51.8,37.4,58,30.38,10.0,East,4.6,-,N/A,,Clear,100,2012-12-31 15:35:00
10:55 AM,53.6,39.2,58,30.38,10.0,East,3.5,-,N/A,,Clear,100,2012-12-31 15:55:00
11:15 AM,53.6,41.0,62,30.38,10.0,ESE,4.6,-,N/A,,Clear,110,2012-12-31 16:15:00
11:35 AM,55.4,42.8,63,30.37,10.0,SE,3.5,-,N/A,,Clear,140,2012-12-31 16:35:00
11:55 AM,55.4,42.8,63,30.35,10.0,ESE,3.5,-,N/A,,Clear,120,2012-12-31 16:55:00
12:15 PM,59.0,42.8,55,30.33,10.0,SSE,4.6,-,N/A,,Clear,150,2012-12-31 17:15:00
12:35 PM,60.8,44.6,55,30.32,10.0,SE,5.8,-,N/A,,Clear,140,2012-12-31 17:35:00
12:55 PM,60.8,46.4,59,30.31,10.0,SSE,3.5,-,N/A,,Clear,150,2012-12-31 17:55:00
1:15 PM,60.8,46.4,59,30.30,10.0,Calm,Calm,-,N/A,,Scattered Clouds,0,2012-12-31 18:15:00
1:35 PM,62.6,46.4,55,30.29,10.0,Calm,Calm,-,N/A,,Overcast,0,2012-12-31 18:35:00
1:55 PM,62.6,48.2,59,30.29,10.0,SSW,3.5,-,N/A,,Mostly Cloudy,200,2012-12-31 18:55:00
2:15 PM,64.4,48.2,56,30.28,10.0,WSW,4.6,-,N/A,,Scattered Clouds,240,2012-12-31 19:15:00
2:35 PM,64.4,48.2,56,30.26,10.0,SW,5.8,-,N/A,,Scattered Clouds,230,2012-12-31 19:35:00
2:55 PM,64.4,48.2,56,30.26,10.0,SSW,6.9,-,N/A,,Scattered Clouds,210,2012-12-31 19:55:00
3:15 PM,64.4,50.0,59,30.26,10.0,SW,4.6,-,N/A,,Mostly Cloudy,230,2012-12-31 20:15:00
3:35 PM,66.2,50.0,56,30.25,10.0,SSW,6.9,-,N/A,,Mostly Cloudy,200,2012-12-31 20:35:00
3:55 PM,66.2,50.0,56,30.25,10.0,WSW,6.9,-,N/A,,Scattered Clouds,240,2012-12-31 20:55:00
4:15 PM,64.4,50.0,59,30.26,10.0,SW,3.5,-,N/A,,Scattered Clouds,230,2012-12-31 21:15:00
4:35 PM,64.4,50.0,59,30.25,10.0,West,4.6,-,N/A,,Scattered Clouds,260,2012-12-31 21:35:00
4:55 PM,64.4,50.0,59,30.24,10.0,Calm,Calm,-,N/A,,Clear,0,2012-12-31 21:55:00
5:15 PM,62.6,50.0,63,30.25,10.0,Calm,Calm,-,N/A,,Scattered Clouds,0,2012-12-31 22:15:00
5:35 PM,62.6,51.8,68,30.24,10.0,Calm,Calm,-,N/A,,Mostly Cloudy,0,2012-12-31 22:35:00
5:55 PM,59.0,51.8,77,30.25,10.0,Calm,Calm,-,N/A,,Scattered Clouds,0,2012-12-31 22:55:00
6:15 PM,59.0,51.8,77,30.25,10.0,Calm,Calm,-,N/A,,Clear,0,2012-12-31 23:15:00
6:35 PM,59.0,51.8,77,30.25,10.0,Calm,Calm,-,N/A,,Mostly Cloudy,0,2012-12-31 23:35:00
6:55 PM,59.0,51.8,77,30.25,10.0,Calm,Calm,-,N/A,,Overcast,0,2012-12-31 23:55:00
7:15 PM,57.2,51.8,82,30.26,10.0,Calm,Calm,-,N/A,,Overcast,0,2013-01-01 00:15:00
7:35 PM,59.0,51.8,77,30.25,10.0,Calm,Calm,-,N/A,,Overcast,0,2013-01-01 00:35:00
7:55 PM,59.0,51.8,77,30.25,10.0,Calm,Calm,-,N/A,,Overcast,0,2013-01-01 00:55:00
8:15 PM,59.0,50.0,72,30.25,10.0,Calm,Calm,-,N/A,,Overcast,0,2013-01-01 01:15:00
8:35 PM,57.2,51.8,82,30.25,10.0,Calm,Calm,-,N/A,,Overcast,0,2013-01-01 01:35:00
9:35 PM,55.4,51.8,88,30.26,10.0,Calm,Calm,-,N/A,,Overcast,0,2013-01-01 02:35:00
9:55 PM,55.4,50.0,82,30.26,10.0,Calm,Calm,-,N/A,,Scattered Clouds,0,2013-01-01 02:55:00
10:15 PM,53.6,50.0,88,30.25,10.0,Calm,Calm,-,N/A,,Clear,0,2013-01-01 03:15:00
10:35 PM,51.8,50.0,94,30.26,10.0,Calm,Calm,-,N/A,,Clear,0,2013-01-01 03:35:00
10:55 PM,51.8,48.2,88,30.25,10.0,SE,3.5,-,N/A,,Clear,130,2013-01-01 03:55:00
11:15 PM,50.0,48.2,94,30.24,7.0,SE,3.5,-,N/A,,Clear,130,2013-01-01 04:15:00
11:35 PM,50.0,48.2,94,30.23,10.0,Calm,Calm,-,N/A,,Clear,0,2013-01-01 04:35:00
11:55 PM,50.0,48.2,94,30.23,7.0,Calm,Calm,-,N/A,,Clear,0,2013-01-01 04:55:00